Time,TemperatureF,DewpointF,PressureIn,WindDirection,WindDirectionDegrees,WindSpeedMPH,WindSpeedGustMPH,Humidity,HourlyPrecipIn,Conditions,Clouds,dailyrainin,SoftwareType,DateUTC
2013-10-17 00:04:00,49.0,-99.9,-100.00,NNW,340,14.0,17.0,-999,-99.99,,,-99.99,,2013-10-17 05:04:00,
2013-10-17 00:23:00,48.0,-99.9,-100.00,NNW,330,17.0,20.0,-999,-99.99,,,-99.99,,2013-10-17 05:23:00,
2013-10-17 00:34:00,48.0,-99.9,-100.00,NNW,330,17.0,20.0,-999,-99.99,,,-99.99,,2013-10-17 05:34:00,
2013-10-17 01:22:00,47.0,-99.9,-100.00,NNW,340,16.0,17.0,-999,-99.99,,,-99.99,,2013-10-17 06:22:00,
2013-10-17 01:33:00,47.0,-99.9,-100.00,NNW,340,16.0,17.0,-999,-99.99,,,-99.99,,2013-10-17 06:33:00,
2013-10-17 01:52:00,47.0,-99.9,-100.00,NNW,340,13.0,15.0,-999,-99.99,,,-99.99,,2013-10-17 06:52:00,
2013-10-17 02:02:00,47.0,-99.9,-100.00,NNW,340,13.0,15.0,-999,-99.99,,,-99.99,,2013-10-17 07:02:00,
2013-10-17 02:52:00,47.0,-99.9,-100.00,NNW,340,10.0,13.0,-999,-99.99,,,-99.99,,2013-10-17 07:52:00,
2013-10-17 03:02:00,47.0,-99.9,-100.00,NNW,340,10.0,13.0,-999,-99.99,,,-99.99,,2013-10-17 08:02:00,
2013-10-17 03:22:00,47.0,-99.9,-100.00,NNW,340,13.0,14.0,-999,-99.99,,,-99.99,,2013-10-17 08:22:00,
2013-10-17 03:52:00,47.0,-99.9,-100.00,NW,320,9.0,11.0,-999,-99.99,,,-99.99,,2013-10-17 08:52:00,
2013-10-17 04:02:00,47.0,-99.9,-100.00,NW,320,9.0,11.0,-999,-99.99,,,-99.99,,2013-10-17 09:02:00,
2013-10-17 04:23:00,47.0,-99.9,-100.00,NW,310,11.0,14.0,-999,-99.99,,,-99.99,,2013-10-17 09:23:00,
2013-10-17 04:53:00,48.0,-99.9,-100.00,West,280,10.0,13.0,-999,-99.99,,,-99.99,,2013-10-17 09:53:00,
2013-10-17 05:03:00,48.0,-99.9,-100.00,West,280,10.0,13.0,-999,-99.99,,,-99.99,,2013-10-17 10:03:00,
2013-10-17 05:53:00,47.0,-99.9,-100.00,NW,310,11.0,15.0,-999,-99.99,,,-99.99,,2013-10-17 10:53:00,
2013-10-17 06:03:00,47.0,-99.9,-100.00,NW,310,11.0,15.0,-999,-99.99,,,-99.99,,2013-10-17 11:03:00,
2013-10-17 06:22:00,47.0,-99.9,-100.00,NW,310,11.0,14.0,-999,-99.99,,,-99.99,,2013-10-17 11:22:00,
2013-10-17 06:52:00,46.0,-99.9,-100.00,WNW,300,9.0,13.0,-999,-99.99,,,-99.99,,2013-10-17 11:52:00,
2013-10-17 07:02:00,46.0,-99.9,-100.00,WNW,300,9.0,13.0,-999,-99.99,,,-99.99,,2013-10-17 12:02:00,
2013-10-17 07:22:00,45.0,-99.9,-100.00,SSW,210,6.0,7.0,-999,-99.99,,,-99.99,,2013-10-17 12:22:00,
2013-10-17 07:32:00,45.0,-99.9,-100.00,SSW,210,6.0,7.0,-999,-99.99,,,-99.99,,2013-10-17 12:32:00,
2013-10-17 07:52:00,46.0,-99.9,-100.00,NW,310,10.0,11.0,-999,-99.99,,,-99.99,,2013-10-17 12:52:00,
2013-10-17 08:02:00,46.0,-99.9,-100.00,NW,310,10.0,11.0,-999,-99.99,,,-99.99,,2013-10-17 13:02:00,
2013-10-17 08:52:00,45.0,-99.9,-100.00,South,170,8.0,9.0,-999,-99.99,,,-99.99,,2013-10-17 13:52:00,
2013-10-17 09:02:00,45.0,-99.9,-100.00,South,170,8.0,9.0,-999,-99.99,,,-99.99,,2013-10-17 14:02:00,
2013-10-17 09:22:00,45.0,-99.9,-100.00,South,170,8.0,9.0,-999,-99.99,,,-99.99,,2013-10-17 14:22:00,
2013-10-17 09:52:00,-999.0,-99.9,-100.00,WNW,290,11.0,14.0,-999,-99.99,,,-99.99,,2013-10-17 14:52:00,
2013-10-17 10:02:00,-999.0,-99.9,-100.00,WNW,290,11.0,14.0,-999,-99.99,,,-99.99,,2013-10-17 15:02:00,
2013-10-17 10:22:00,52.0,-99.9,-100.00,NW,310,11.0,15.0,-999,-99.99,,,-99.99,,2013-10-17 15:22:00,
2013-10-17 10:54:00,47.0,-99.9,-100.00,NNW,340,10.0,13.0,-999,-99.99,,,-99.99,,2013-10-17 15:54:00,
2013-10-17 11:04:00,47.0,-99.9,-100.00,NNW,340,10.0,13.0,-999,-99.99,,,-99.99,,2013-10-17 16:04:00,
2013-10-17 11:23:00,49.0,-99.9,-100.00,NW,310,10.0,13.0,-999,-99.99,,,-99.99,,2013-10-17 16:23:00,
2013-10-17 11:33:00,49.0,-99.9,-100.00,NW,310,10.0,13.0,-999,-99.99,,,-99.99,,2013-10-17 16:33:00,
2013-10-17 11:54:00,48.0,-99.9,-100.00,WNW,300,8.0,9.0,-999,-99.99,,,-99.99,,2013-10-17 16:54:00,
2013-10-17 12:02:00,48.0,-99.9,-100.00,WNW,300,8.0,9.0,-999,-99.99,,,-99.99,,2013-10-17 17:02:00,
2013-10-17 12:22:00,49.0,-99.9,-100.00,NW,310,7.0,8.0,-999,-99.99,,,-99.99,,2013-10-17 17:22:00,
2013-10-17 12:33:00,49.0,-99.9,-100.00,NW,310,7.0,8.0,-999,-99.99,,,-99.99,,2013-10-17 17:33:00,
2013-10-17 12:53:00,52.0,-99.9,-100.00,NW,320,6.0,9.0,-999,-99.99,,,-99.99,,2013-10-17 17:53:00,
2013-10-17 13:02:00,52.0,-99.9,-100.00,NW,320,6.0,9.0,-999,-99.99,,,-99.99,,2013-10-17 18:02:00,
2013-10-17 13:22:00,54.0,-99.9,-100.00,North,0,0.0,0.0,-999,-99.99,,,-99.99,,2013-10-17 18:22:00,
2013-10-17 13:32:00,54.0,-99.9,-100.00,North,0,0.0,0.0,-999,-99.99,,,-99.99,,2013-10-17 18:32:00,
2013-10-17 13:52:00,56.0,-99.9,-100.00,North,0,0.0,0.0,-999,-99.99,,,-99.99,,2013-10-17 18:52:00,
2013-10-17 14:02:00,56.0,-99.9,-100.00,North,0,0.0,0.0,-999,-99.99,,,-99.99,,2013-10-17 19:02:00,
2013-10-17 14:53:00,55.0,-99.9,-100.00,WNW,290,7.0,9.0,-999,-99.99,,,-99.99,,2013-10-17 19:53:00,
2013-10-17 15:02:00,55.0,-99.9,-100.00,WNW,290,7.0,9.0,-999,-99.99,,,-99.99,,2013-10-17 20:02:00,
2013-10-17 15:22:00,58.0,-99.9,-100.00,WNW,300,6.0,7.0,-999,-99.99,,,-99.99,,2013-10-17 20:22:00,
2013-10-17 16:22:00,59.0,-99.9,-100.00,West,280,9.0,9.0,-999,-99.99,,,-99.99,,2013-10-17 21:22:00,
2013-10-17 16:34:00,59.0,-99.9,-100.00,West,280,9.0,9.0,-999,-99.99,,,-99.99,,2013-10-17 21:34:00,
2013-10-17 16:53:00,52.0,-99.9,-100.00,West,270,9.0,10.0,-999,-99.99,,,-99.99,,2013-10-17 21:53:00,
2013-10-17 16:54:00,60.0,-99.9,-100.00,West,280,8.0,9.0,-999,-99.99,,,-99.99,,2013-10-17 21:54:00,
2013-10-17 17:04:00,60.0,-99.9,-100.00,West,280,8.0,9.0,-999,-99.99,,,-99.99,,2013-10-17 22:04:00,
2013-10-17 17:24:00,57.0,-99.9,-100.00,West,270,9.0,9.0,-999,-99.99,,,-99.99,,2013-10-17 22:24:00,
2013-10-17 17:33:00,57.0,-99.9,-100.00,West,270,9.0,9.0,-999,-99.99,,,-99.99,,2013-10-17 22:33:00,
2013-10-17 18:23:00,49.0,-99.9,-100.00,South,190,9.0,10.0,-999,-99.99,,,-99.99,,2013-10-17 23:23:00,
2013-10-17 18:34:00,49.0,-99.9,-100.00,South,190,9.0,10.0,-999,-99.99,,,-99.99,,2013-10-17 23:34:00,
2013-10-17 18:53:00,46.0,-99.9,-100.00,SE,130,5.0,7.0,-999,-99.99,,,-99.99,,2013-10-17 23:53:00,
2013-10-17 19:22:00,46.0,-99.9,-100.00,SSE,160,6.0,8.0,-999,-99.99,,,-99.99,,2013-10-18 00:22:00,
2013-10-17 19:53:00,45.0,-99.9,-100.00,SSE,160,8.0,10.0,-999,-99.99,,,-99.99,,2013-10-18 00:53:00,
2013-10-17 21:22:00,48.0,-99.9,-100.00,SSW,210,11.0,14.0,-999,-99.99,,,-99.99,,2013-10-18 02:22:00,
2013-10-17 21:33:00,48.0,-99.9,-100.00,SSW,210,11.0,14.0,-999,-99.99,,,-99.99,,2013-10-18 02:33:00,
2013-10-17 22:23:00,50.0,-99.9,-100.00,WSW,240,10.0,11.0,-999,-99.99,,,-99.99,,2013-10-18 03:23:00,
2013-10-17 22:53:00,50.0,-99.9,-100.00,SW,230,9.0,10.0,-999,-99.99,,,-99.99,,2013-10-18 03:53:00,
2013-10-17 22:55:00,50.0,-99.9,-100.00,SW,230,10.0,11.0,-999,-99.99,,,-99.99,,2013-10-18 03:55:00,
2013-10-17 23:05:00,50.0,-99.9,-100.00,SW,230,10.0,11.0,-999,-99.99,,,-99.99,,2013-10-18 04:05:00,
2013-10-17 23:23:00,50.0,-99.9,-100.00,WSW,250,8.0,9.0,-999,-99.99,,,-99.99,,2013-10-18 04:23:00,